Weather History for KHFD - August, 2014

Change the Weather History Date:

Tuesday, August 12, 2014

  Actual Average Record
Temperature  
Mean Temperature 72 °F -  
Max Temperature 81 °F 81 °F 98 °F (1944)
Min Temperature 63 °F 62 °F 49 °F (1963)
Cooling Degree Days 7    
Growing Degree Days 22 (Base 50)    
Moisture  
Dew Point 63 °F    
Average Humidity 80    
Maximum Humidity 97    
Minimum Humidity 44    
Precipitation  
Precipitation 0.00 in - - ()
Sea Level Pressure  
Sea Level Pressure 30.06 in    
Wind  
Wind Speed 3 mph (SSE)    
Max Wind Speed 15 mph    
Max Gust Speed 22 mph    
Visibility 7 miles    
Events Fog    
Averages and records for this station are not official NWS values.
T = Trace of Precipitation, MM = Missing Value Source: NWS Daily Summary

Daily Weather History Graph

Daily Weather History Graph

Search for Another Location

Airport or City:

Trip Planner

Search our weather history database for the weather conditions in past years. The results will help you decide how hot, cold, wet, or windy it might be!

Date:

Astronomy

Aug. 12, 2014 Rise Set
Actual Time 5:55 AM EDT 7:54 PM EDT
Civil Twilight 5:25 AM EDT 8:24 PM EDT
Nautical Twilight 4:48 AM EDT 9:01 PM EDT
Astronomical Twilight 4:08 AM EDT 9:41 PM EDT
Moon 8:57 PM EDT (8/12) 8:12 AM EDT (8/12)
Length of Visible Light 14h 59m
Length of Day
13h 58m
Waning Gibbous, 95% of the Moon is Illuminated
Aug 12
Waning Gibbous
Aug 17
Last Quarter
Aug 25
New
Sep 2
First Quarter
Sep 8
Full

Hourly Weather History & Observations

Time (EDT) Temp. Heat Index Dew Point Humidity Pressure Visibility Wind Dir Wind Speed Gust Speed Precip Events Conditions
12:53 AM 66.9 °F - 62.1 °F 84% 30.12 in 10.0 mi Calm Calm - N/A   Clear
1:53 AM 66.9 °F - 63.0 °F 87% 30.11 in 10.0 mi Calm Calm - N/A   Clear
2:53 AM 64.9 °F - 62.1 °F 90% 30.10 in 10.0 mi Calm Calm - N/A   Clear
3:42 AM 64.0 °F - 62.1 °F 93% 30.10 in 1.8 mi Calm Calm - N/A   Clear
3:53 AM 64.0 °F - 62.1 °F 93% 30.10 in 2.0 mi Calm Calm - N/A   Clear
4:02 AM 64.0 °F - 63.0 °F 96% 30.09 in 0.8 mi Calm Calm - N/A   Clear
4:35 AM 64.0 °F - 62.1 °F 93% 30.09 in 1.8 mi Calm Calm - N/A   Partly Cloudy
4:45 AM 64.9 °F - 63.0 °F 93% 30.09 in 3.0 mi Calm Calm - N/A   Clear
5:04 AM 64.0 °F - 62.1 °F 93% 30.09 in 1.0 mi Calm Calm - N/A   Clear
5:16 AM 63.0 °F - 62.1 °F 97% 30.08 in 1.8 mi Calm Calm - N/A   Clear
5:25 AM 63.0 °F - 61.0 °F 93% 30.08 in 0.8 mi Calm Calm - N/A   Clear
5:33 AM 63.0 °F - 62.1 °F 97% 30.08 in 1.0 mi Calm Calm - N/A   Clear
5:40 AM 63.0 °F - 62.1 °F 97% 30.08 in 0.2 mi Calm Calm - N/A Fog Fog
5:53 AM 63.0 °F - 62.1 °F 97% 30.09 in 5.0 mi Calm Calm - N/A   Clear
6:53 AM 64.9 °F - 63.0 °F 93% 30.09 in 10.0 mi Calm Calm - N/A   Clear
7:53 AM 66.9 °F - 64.0 °F 90% 30.10 in 10.0 mi Calm Calm - N/A   Clear
8:53 AM 69.1 °F - 64.0 °F 84% 30.10 in 10.0 mi Calm Calm - N/A   Scattered Clouds
9:13 AM 70.0 °F - 64.9 °F 84% 30.09 in 10.0 mi Calm Calm - N/A   Mostly Cloudy
9:27 AM 71.1 °F - 64.9 °F 81% 30.09 in 10.0 mi SE 4.6 mph - N/A   Scattered Clouds
9:51 AM 75.2 °F - 64.4 °F 69% 30.08 in 10.0 mi South 13.8 mph 18.4 mph N/A   Mostly Cloudy
9:53 AM 73.9 °F - 64.0 °F 71% 30.09 in 10.0 mi SSE 10.4 mph 18.4 mph N/A   Mostly Cloudy
10:32 AM 75.0 °F - 63.0 °F 66% 30.08 in 10.0 mi South 11.5 mph - N/A   Partly Cloudy
10:53 AM 73.9 °F - 61.0 °F 64% 30.08 in 10.0 mi SSE 10.4 mph - N/A   Partly Cloudy
11:53 AM 78.1 °F - 61.0 °F 56% 30.07 in 10.0 mi SSE 11.5 mph 21.9 mph N/A   Clear
1:53 PM 81.0 °F 81.0 °F 57.0 °F 44% 30.06 in 10.0 mi South 15.0 mph - N/A   Partly Cloudy
2:53 PM 78.1 °F - 59.0 °F 52% 30.04 in 10.0 mi SSE 11.5 mph 21.9 mph N/A   Scattered Clouds
3:53 PM 77.0 °F - 61.0 °F 58% 30.03 in 10.0 mi SSE 10.4 mph 17.3 mph N/A   Mostly Cloudy
4:53 PM 75.9 °F - 63.0 °F 64% 30.01 in 10.0 mi SSE 12.7 mph 18.4 mph N/A   Mostly Cloudy
5:53 PM 75.0 °F - 64.9 °F 71% 30.01 in 10.0 mi SSE 10.4 mph - N/A   Mostly Cloudy
6:53 PM 73.9 °F - 66.0 °F 76% 30.00 in 10.0 mi SSE 8.1 mph - 0.00 in   Mostly Cloudy
7:53 PM 73.9 °F - 64.9 °F 73% 29.98 in 10.0 mi SE 8.1 mph - N/A   Mostly Cloudy
8:53 PM 73.0 °F - 66.0 °F 79% 29.99 in 10.0 mi SE 8.1 mph - N/A   Partly Cloudy
9:53 PM 73.0 °F - 66.0 °F 79% 29.99 in 10.0 mi SSE 8.1 mph - N/A   Overcast
10:53 PM 73.0 °F - 66.0 °F 79% 29.97 in 10.0 mi SE 9.2 mph - N/A   Scattered Clouds
11:53 PM 73.0 °F - 66.9 °F 81% 29.95 in 10.0 mi SE 6.9 mph - N/A   Mostly Cloudy